• En España
  • Lista de países
  • Para 7 días
  • Temperatura del agua
  • Mapa Satelital
  • El tiempo en el mapa
  • Informadores
  • user-avatar
    Iniciar sesión

    Tiempo cada hora Benguela

    Hoy, 22 Enero, Lunes

    Tiempo Temperatura Precipitaciones Viento Presión Humedad
    00:00 +27°C° 0 mm 1 mps 759 mmHg 84%
    01:00 +26°C° 0 mm 1 mps 758 mmHg 86%
    02:00 +26°C° 0 mm 1 mps 758 mmHg 87%
    03:00 +26°C° 0 mm 1 mps 758 mmHg 87%
    04:00 +26°C° 0 mm 1 mps 758 mmHg 88%
    05:00 +26°C° 0 mm 1 mps 758 mmHg 86%
    06:00 +26°C° 0 mm 1 mps 758 mmHg 84%
    07:00 +27°C° 0 mm 1 mps 758 mmHg 82%
    08:00 +29°C° 0 mm 1 mps 759 mmHg 74%
    09:00 +30°C° 0 mm 1 mps 759 mmHg 65%
    10:00 +32°C° 0 mm 1 mps 759 mmHg 57%
    11:00 +34°C° 0 mm 2 mps 758 mmHg 54%
    12:00 +35°C° 0 mm 3 mps 757 mmHg 51%
    13:00 +36°C° 0 mm 4 mps 757 mmHg 48%
    14:00 +35°C° 0 mm 4 mps 756 mmHg 50%
    15:00 +35°C° 0 mm 4 mps 756 mmHg 53%
    16:00 +34°C° 0 mm 4 mps 755 mmHg 56%
    17:00 +33°C° 0 mm 4 mps 756 mmHg 63%
    18:00 +30°C° 0 mm 4 mps 756 mmHg 70%
    19:00 +29°C° 0 mm 3 mps 757 mmHg 77%
    20:00 +28°C° 0 mm 3 mps 757 mmHg 79%
    21:00 +28°C° 0 mm 3 mps 758 mmHg 82%
    22:00 +27°C° 0 mm 2 mps 759 mmHg 85%
    23:00 +27°C° 0 mm 2 mps 758 mmHg 85%

    Mañana, 23 Enero, Martes

    Tiempo Temperatura Precipitaciones Viento Presión Humedad
    00:00 +27°C° 0 mm 2 mps 758 mmHg 85%
    01:00 +27°C° 0 mm 2 mps 758 mmHg 85%
    02:00 +27°C° 0 mm 2 mps 758 mmHg 85%
    03:00 +27°C° 0 mm 2 mps 757 mmHg 86%
    04:00 +27°C° 0 mm 1 mps 757 mmHg 87%
    05:00 +27°C° 0 mm 1 mps 757 mmHg 86%
    06:00 +27°C° 0 mm 1 mps 758 mmHg 86%
    07:00 +27°C° 0 mm 1 mps 758 mmHg 86%
    08:00 +28°C° 0 mm 1 mps 758 mmHg 82%
    09:00 +29°C° 0 mm 1 mps 758 mmHg 77%
    10:00 +29°C° 0 mm 1 mps 758 mmHg 73%
    11:00 +30°C° 0 mm 2 mps 758 mmHg 69%
    12:00 +31°C° 0 mm 2 mps 757 mmHg 66%
    13:00 +33°C° 0 mm 3 mps 757 mmHg 62%
    14:00 +33°C° 0 mm 3 mps 756 mmHg 64%
    15:00 +31°C° 0 mm 3 mps 756 mmHg 66%
    16:00 +31°C° 0 mm 3 mps 756 mmHg 68%
    17:00 +30°C° 0 mm 3 mps 756 mmHg 72%
    18:00 +29°C° 0 mm 3 mps 756 mmHg 77%
    19:00 +28°C° 0 mm 3 mps 757 mmHg 81%
    20:00 +28°C° 0,1 mm 2 mps 757 mmHg 82%
    21:00 +28°C° 0,1 mm 2 mps 758 mmHg 83%
    22:00 +28°C° 0,1 mm 2 mps 759 mmHg 84%
    23:00 +28°C° 0 mm 2 mps 758 mmHg 84%

    Pasado mañana, 24 Enero, Miércoles

    Tiempo Temperatura Precipitaciones Viento Presión Humedad
    00:00 +27°C° 0 mm 1 mps 758 mmHg 84%
    01:00 +27°C° 0 mm 1 mps 757 mmHg 85%
    02:00 +27°C° 0 mm 1 mps 757 mmHg 85%
    03:00 +27°C° 0 mm 1 mps 757 mmHg 86%
    04:00 +27°C° 0 mm 1 mps 757 mmHg 86%
    05:00 +27°C° 0 mm 1 mps 757 mmHg 86%
    06:00 +27°C° 0 mm 1 mps 758 mmHg 85%
    07:00 +27°C° 0 mm 1 mps 758 mmHg 85%
    08:00 +28°C° 0 mm 1 mps 758 mmHg 80%
    09:00 +29°C° 0 mm 1 mps 758 mmHg 75%
    10:00 +28°C° 0 mm 0 mps 759 mmHg 70%
    11:00 +30°C° 0,1 mm 1 mps 758 mmHg 67%
    12:00 +31°C° 0,1 mm 2 mps 757 mmHg 65%
    13:00 +33°C° 0,1 mm 3 mps 757 mmHg 62%
    14:00 +33°C° 0,1 mm 3 mps 756 mmHg 61%
    15:00 +33°C° 0,1 mm 4 mps 756 mmHg 60%
    16:00 +34°C° 0,1 mm 5 mps 755 mmHg 59%
    17:00 +32°C° 0,1 mm 4 mps 756 mmHg 64%
    18:00 +30°C° 0,1 mm 4 mps 756 mmHg 68%
    19:00 +29°C° 0,1 mm 4 mps 757 mmHg 73%
    20:00 +29°C° 0,1 mm 3 mps 757 mmHg 74%
    21:00 +28°C° 0,1 mm 2 mps 758 mmHg 76%
    22:00 +28°C° 0,1 mm 2 mps 759 mmHg 78%
    23:00 +28°C° 0 mm 2 mps 758 mmHg 79%

    25 Enero, Jueves

    Tiempo Temperatura Precipitaciones Viento Presión Humedad
    00:00 +28°C° 0 mm 2 mps 758 mmHg 79%
    01:00 +28°C° 0 mm 1 mps 757 mmHg 80%
    02:00 +27°C° 0 mm 1 mps 757 mmHg 81%
    03:00 +27°C° 0 mm 1 mps 757 mmHg 82%
    04:00 +27°C° 0 mm 1 mps 757 mmHg 83%
    05:00 +27°C° 0 mm 1 mps 757 mmHg 82%
    06:00 +27°C° 0 mm 1 mps 758 mmHg 82%
    07:00 +27°C° 0 mm 1 mps 758 mmHg 82%
    08:00 +29°C° 0 mm 1 mps 758 mmHg 75%
    09:00 +30°C° 0 mm 1 mps 758 mmHg 67%
    10:00 +32°C° 0 mm 1 mps 758 mmHg 60%
    11:00 +34°C° 0,1 mm 2 mps 757 mmHg 57%
    12:00 +35°C° 0,1 mm 3 mps 757 mmHg 54%
    13:00 +36°C° 0,1 mm 4 mps 756 mmHg 51%
    14:00 +35°C° 0,2 mm 5 mps 756 mmHg 54%
    15:00 +35°C° 0,2 mm 5 mps 755 mmHg 57%
    16:00 +34°C° 0,2 mm 5 mps 755 mmHg 60%
    17:00 +33°C° 0,1 mm 5 mps 756 mmHg 65%
    18:00 +32°C° 0,1 mm 4 mps 756 mmHg 70%
    19:00 +29°C° 0,1 mm 4 mps 757 mmHg 75%
    20:00 +29°C° 0,2 mm 4 mps 757 mmHg 76%
    21:00 +29°C° 0,2 mm 3 mps 758 mmHg 78%
    22:00 +29°C° 0,2 mm 3 mps 758 mmHg 79%
    23:00 +28°C° 0,2 mm 3 mps 758 mmHg 80%

    26 Enero, Viernes

    Tiempo Temperatura Precipitaciones Viento Presión Humedad
    00:00 +28°C° 0,2 mm 3 mps 757 mmHg 81%
    01:00 +28°C° 0,2 mm 2 mps 757 mmHg 83%
    02:00 +28°C° 0 mm 2 mps 757 mmHg 84%
    03:00 +27°C° 0 mm 2 mps 756 mmHg 86%
    04:00 +27°C° 0 mm 2 mps 756 mmHg 87%
    05:00 +27°C° 0 mm 2 mps 757 mmHg 87%
    06:00 +27°C° 0 mm 1 mps 757 mmHg 86%
    07:00 +28°C° 0 mm 1 mps 758 mmHg 86%
    08:00 +29°C° 0 mm 1 mps 758 mmHg 79%
    09:00 +31°C° 0 mm 1 mps 758 mmHg 73%
    10:00 +32°C° 0 mm 1 mps 758 mmHg 66%
    11:00 +34°C° 0,1 mm 2 mps 757 mmHg 64%
    12:00 +35°C° 0,1 mm 3 mps 756 mmHg 61%
    13:00 +36°C° 0,1 mm 4 mps 756 mmHg 58%
    14:00 +35°C° 0,4 mm 4 mps 755 mmHg 62%
    15:00 +34°C° 0,4 mm 4 mps 755 mmHg 65%
    16:00 +33°C° 0,4 mm 4 mps 755 mmHg 68%
    17:00 +31°C° 0,5 mm 3 mps 755 mmHg 73%
    18:00 +30°C° 0,5 mm 3 mps 756 mmHg 77%
    19:00 +29°C° 0,5 mm 3 mps 756 mmHg 81%
    20:00 +29°C° 0,1 mm 3 mps 756 mmHg 82%
    21:00 +29°C° 0,1 mm 3 mps 757 mmHg 83%
    22:00 +28°C° 0,1 mm 2 mps 757 mmHg 84%
    23:00 +28°C° 0,1 mm 2 mps 757 mmHg 86%

    27 Enero, Sábado

    Tiempo Temperatura Precipitaciones Viento Presión Humedad
    00:00 +28°C° 0,1 mm 2 mps 756 mmHg 87%
    01:00 +28°C° 0,1 mm 2 mps 756 mmHg 88%
    02:00 +28°C° 0 mm 2 mps 756 mmHg 88%
    03:00 +27°C° 0 mm 2 mps 756 mmHg 89%
    04:00 +27°C° 0 mm 2 mps 756 mmHg 89%
    05:00 +28°C° 0 mm 1 mps 756 mmHg 88%
    06:00 +28°C° 0 mm 1 mps 757 mmHg 88%
    07:00 +28°C° 0 mm 1 mps 757 mmHg 87%
    08:00 +29°C° 0 mm 1 mps 757 mmHg 82%
    09:00 +31°C° 0 mm 1 mps 757 mmHg 76%
    10:00 +32°C° 0 mm 1 mps 757 mmHg 71%
    11:00 +32°C° 0,4 mm 2 mps 757 mmHg 69%
    12:00 +34°C° 0,4 mm 3 mps 756 mmHg 68%
    13:00 +34°C° 0,4 mm 4 mps 755 mmHg 67%
    14:00 +34°C° 0,3 mm 4 mps 755 mmHg 69%
    15:00 +33°C° 0,3 mm 4 mps 754 mmHg 72%
    16:00 +32°C° 0,3 mm 4 mps 754 mmHg 74%
    17:00 +32°C° 0,4 mm 4 mps 755 mmHg 77%
    18:00 +30°C° 0,4 mm 3 mps 755 mmHg 80%
    19:00 +29°C° 0,4 mm 3 mps 756 mmHg 83%
    20:00 +29°C° 0,3 mm 2 mps 756 mmHg 84%
    21:00 +28°C° 0,3 mm 2 mps 756 mmHg 84%
    22:00 +28°C° 0,3 mm 2 mps 757 mmHg 84%
    23:00 +28°C° 0,2 mm 2 mps 756 mmHg 85%
    Mostrar más